Time,TemperatureF,DewpointF,PressureIn,WindDirection,WindDirectionDegrees,WindSpeedMPH,WindSpeedGustMPH,Humidity,HourlyPrecipIn,Conditions,Clouds,dailyrainin,SoftwareType,DateUTC
2013-05-11 00:01:00,65.1,44.4,30.06,NE,52,0.0,0.0,47,0.00,,---,0.00,VWS V14.01,2013-05-11 04:01:00,
2013-05-11 00:06:00,64.9,44.2,30.06,NE,52,0.0,0.0,47,0.00,,---,0.00,VWS V14.01,2013-05-11 04:06:00,
2013-05-11 00:11:00,64.8,44.1,30.06,NE,52,0.0,0.0,47,0.00,,---,0.00,VWS V14.01,2013-05-11 04:11:00,
2013-05-11 00:16:00,64.8,44.6,30.06,NE,52,0.0,0.0,48,0.00,,---,0.00,VWS V14.01,2013-05-11 04:16:00,
2013-05-11 00:21:00,64.6,44.5,30.06,NE,52,0.0,0.0,48,0.00,,---,0.00,VWS V14.01,2013-05-11 04:21:00,
2013-05-11 00:26:00,64.6,45.0,30.06,NE,52,0.0,0.0,49,0.00,,---,0.00,VWS V14.01,2013-05-11 04:26:00,
2013-05-11 00:31:00,64.6,45.0,30.06,NE,52,0.0,0.0,49,0.00,,---,0.00,VWS V14.01,2013-05-11 04:31:00,
2013-05-11 00:36:00,64.4,45.4,30.06,NE,52,0.0,0.0,50,0.00,,---,0.00,VWS V14.01,2013-05-11 04:36:00,
2013-05-11 00:41:00,64.4,45.4,30.06,NE,52,0.0,0.0,50,0.00,,---,0.00,VWS V14.01,2013-05-11 04:41:00,
2013-05-11 00:46:00,64.4,45.9,30.03,NE,52,0.0,0.0,51,0.00,,---,0.00,VWS V14.01,2013-05-11 04:46:00,
2013-05-11 00:51:00,64.4,45.9,30.03,NE,52,0.0,0.0,51,0.00,,---,0.00,VWS V14.01,2013-05-11 04:51:00,
2013-05-11 00:56:00,64.6,46.6,30.03,NE,52,0.0,0.0,52,0.00,,---,0.00,VWS V14.01,2013-05-11 04:56:00,
2013-05-11 01:01:00,64.6,46.6,30.03,NE,52,0.0,0.0,52,0.00,,---,0.00,VWS V14.01,2013-05-11 05:01:00,
2013-05-11 01:06:00,64.6,47.1,30.03,NE,52,0.0,0.0,53,0.00,,---,0.00,VWS V14.01,2013-05-11 05:06:00,
2013-05-11 01:11:00,64.4,46.9,30.03,NE,52,0.0,0.0,53,0.00,,---,0.00,VWS V14.01,2013-05-11 05:11:00,
2013-05-11 01:16:00,64.4,46.9,30.03,NE,52,0.0,0.0,53,0.00,,---,0.00,VWS V14.01,2013-05-11 05:16:00,
2013-05-11 01:21:00,64.4,46.9,30.03,NE,52,0.0,0.0,53,0.00,,---,0.00,VWS V14.01,2013-05-11 05:21:00,
2013-05-11 01:26:00,64.2,47.2,30.03,NE,52,0.0,0.0,54,0.00,,---,0.00,VWS V14.01,2013-05-11 05:26:00,
2013-05-11 01:31:00,64.0,47.1,30.03,NE,52,0.0,0.0,54,0.00,,---,0.00,VWS V14.01,2013-05-11 05:31:00,
2013-05-11 01:36:00,64.0,47.1,30.03,NE,52,0.0,0.0,54,0.00,,---,0.00,VWS V14.01,2013-05-11 05:36:00,
2013-05-11 01:41:00,63.9,46.9,30.03,NE,52,0.0,0.0,54,0.00,,---,0.00,VWS V14.01,2013-05-11 05:41:00,
2013-05-11 01:46:00,63.7,46.7,30.03,NE,52,0.0,0.0,54,0.00,,---,0.00,VWS V14.01,2013-05-11 05:46:00,
2013-05-11 01:51:00,63.7,46.7,30.03,NE,52,0.0,0.0,54,0.00,,---,0.00,VWS V14.01,2013-05-11 05:51:00,
2013-05-11 01:56:00,63.5,46.6,30.03,NE,52,0.0,0.0,54,0.00,,---,0.00,VWS V14.01,2013-05-11 05:56:00,
2013-05-11 02:01:00,63.5,46.6,30.03,NE,52,0.0,0.0,54,0.00,,---,0.00,VWS V14.01,2013-05-11 06:01:00,
2013-05-11 02:06:00,63.3,46.4,30.03,NE,52,0.0,0.0,54,0.00,,---,0.00,VWS V14.01,2013-05-11 06:06:00,
2013-05-11 02:11:00,63.1,46.7,30.03,NE,52,0.0,0.0,55,0.00,,---,0.00,VWS V14.01,2013-05-11 06:11:00,
2013-05-11 02:16:00,63.1,46.7,30.03,NE,52,0.0,0.0,55,0.00,,---,0.00,VWS V14.01,2013-05-11 06:16:00,
2013-05-11 02:21:00,63.0,46.6,30.03,NE,52,0.0,0.0,55,0.00,,---,0.00,VWS V14.01,2013-05-11 06:21:00,
2013-05-11 02:26:00,63.0,46.6,30.03,NE,52,0.0,0.0,55,0.00,,---,0.00,VWS V14.01,2013-05-11 06:26:00,
2013-05-11 02:31:00,62.8,46.4,30.03,NE,52,0.0,0.0,55,0.00,,---,0.00,VWS V14.01,2013-05-11 06:31:00,
2013-05-11 02:36:00,62.8,46.4,30.03,NE,52,0.0,0.0,55,0.00,,---,0.00,VWS V14.01,2013-05-11 06:36:00,
2013-05-11 02:41:00,62.6,46.2,30.03,NE,52,0.0,0.0,55,0.00,,---,0.00,VWS V14.01,2013-05-11 06:41:00,
2013-05-11 02:46:00,62.6,46.2,30.03,NE,52,0.0,0.0,55,0.00,,---,0.00,VWS V14.01,2013-05-11 06:46:00,
2013-05-11 02:51:00,62.6,46.2,30.03,NE,52,0.0,0.0,55,0.00,,---,0.00,VWS V14.01,2013-05-11 06:51:00,
2013-05-11 02:56:00,62.4,46.5,30.03,NE,52,0.0,0.0,56,0.00,,---,0.00,VWS V14.01,2013-05-11 06:56:00,
2013-05-11 03:01:00,62.2,46.4,30.03,NE,52,0.0,0.0,56,0.00,,---,0.00,VWS V14.01,2013-05-11 07:01:00,
2013-05-11 03:06:00,62.2,46.4,30.03,NE,52,0.0,0.0,56,0.00,,---,0.00,VWS V14.01,2013-05-11 07:06:00,
2013-05-11 03:11:00,62.1,46.2,30.03,NE,52,0.0,0.0,56,0.00,,---,0.00,VWS V14.01,2013-05-11 07:11:00,
2013-05-11 03:16:00,62.1,46.7,30.00,NE,52,0.0,0.0,57,0.00,,---,0.00,VWS V14.01,2013-05-11 07:16:00,
2013-05-11 03:21:00,62.1,46.7,30.00,NE,52,0.0,0.0,57,0.00,,---,0.00,VWS V14.01,2013-05-11 07:21:00,
2013-05-11 03:26:00,61.9,46.5,30.00,NE,52,0.0,0.0,57,0.00,,---,0.00,VWS V14.01,2013-05-11 07:26:00,
2013-05-11 03:31:00,61.9,46.5,30.00,NE,52,0.0,0.0,57,0.00,,---,0.00,VWS V14.01,2013-05-11 07:31:00,
2013-05-11 03:36:00,61.7,46.3,30.00,NE,52,0.0,0.0,57,0.00,,---,0.00,VWS V14.01,2013-05-11 07:36:00,
2013-05-11 03:41:00,61.7,46.3,30.00,NE,52,0.0,0.0,57,0.00,,---,0.00,VWS V14.01,2013-05-11 07:41:00,
2013-05-11 03:46:00,61.5,46.2,30.00,NE,52,0.0,0.0,57,0.00,,---,0.00,VWS V14.01,2013-05-11 07:46:00,
2013-05-11 03:51:00,61.5,46.2,30.00,NE,52,0.0,0.0,57,0.00,,---,0.00,VWS V14.01,2013-05-11 07:51:00,
2013-05-11 03:56:00,61.3,46.5,30.00,NE,52,0.0,0.0,58,0.00,,---,0.00,VWS V14.01,2013-05-11 07:56:00,
2013-05-11 04:01:00,61.3,46.5,30.00,NE,52,0.0,0.0,58,0.00,,---,0.00,VWS V14.01,2013-05-11 08:01:00,
2013-05-11 04:06:00,61.2,46.3,30.00,NE,52,0.0,0.0,58,0.00,,---,0.00,VWS V14.01,2013-05-11 08:06:00,
2013-05-11 04:11:00,61.2,46.3,30.00,NE,52,0.0,0.0,58,0.00,,---,0.00,VWS V14.01,2013-05-11 08:11:00,
2013-05-11 04:16:00,61.0,46.1,29.97,NE,52,0.0,0.0,58,0.00,,---,0.00,VWS V14.01,2013-05-11 08:16:00,
2013-05-11 04:21:00,61.0,46.1,29.97,NE,52,0.0,0.0,58,0.00,,---,0.00,VWS V14.01,2013-05-11 08:21:00,
2013-05-11 04:26:00,61.0,46.1,29.97,NE,52,0.0,0.0,58,0.00,,---,0.00,VWS V14.01,2013-05-11 08:26:00,
2013-05-11 04:31:00,61.0,46.1,29.97,NE,52,0.0,0.0,58,0.00,,---,0.00,VWS V14.01,2013-05-11 08:31:00,
2013-05-11 04:36:00,61.0,46.6,29.97,NE,52,0.0,0.0,59,0.00,,---,0.00,VWS V14.01,2013-05-11 08:36:00,
2013-05-11 04:41:00,61.0,46.6,29.97,NE,52,0.0,0.0,59,0.00,,---,0.00,VWS V14.01,2013-05-11 08:41:00,
2013-05-11 04:46:00,61.0,46.6,29.97,NE,52,0.0,0.0,59,0.00,,---,0.00,VWS V14.01,2013-05-11 08:46:00,
2013-05-11 04:51:00,61.2,47.2,29.97,NE,52,0.0,0.0,60,0.00,,---,0.00,VWS V14.01,2013-05-11 08:51:00,
2013-05-11 04:56:00,61.3,47.3,29.97,NE,52,0.0,0.0,60,0.00,,---,0.00,VWS V14.01,2013-05-11 08:56:00,
2013-05-11 05:01:00,61.3,47.3,29.97,NE,52,0.0,0.0,60,0.00,,---,0.00,VWS V14.01,2013-05-11 09:01:00,
2013-05-11 05:06:00,61.3,47.3,29.97,NE,52,0.0,0.0,60,0.00,,---,0.00,VWS V14.01,2013-05-11 09:06:00,
2013-05-11 05:11:00,61.5,47.5,29.97,NE,52,0.0,0.0,60,0.00,,---,0.00,VWS V14.01,2013-05-11 09:11:00,
2013-05-11 05:16:00,61.5,48.0,29.97,NE,52,0.0,0.0,61,0.00,,---,0.00,VWS V14.01,2013-05-11 09:16:00,
2013-05-11 05:21:00,61.7,48.1,29.97,NE,52,0.0,0.0,61,0.00,,---,0.00,VWS V14.01,2013-05-11 09:21:00,
2013-05-11 05:26:00,61.7,48.1,29.97,NE,52,0.0,0.0,61,0.00,,---,0.00,VWS V14.01,2013-05-11 09:26:00,
2013-05-11 05:31:00,61.9,48.3,29.97,NE,52,0.0,0.0,61,0.00,,---,0.00,VWS V14.01,2013-05-11 09:31:00,
2013-05-11 05:36:00,61.9,48.7,29.97,NE,52,0.0,0.0,62,0.00,,---,0.00,VWS V14.01,2013-05-11 09:36:00,
2013-05-11 05:41:00,62.1,48.9,29.97,NE,52,0.0,0.0,62,0.00,,---,0.00,VWS V14.01,2013-05-11 09:41:00,
2013-05-11 05:46:00,62.2,49.1,29.97,NE,52,0.0,0.0,62,0.00,,---,0.00,VWS V14.01,2013-05-11 09:46:00,
2013-05-11 05:51:00,62.4,49.7,29.97,NE,52,0.0,0.0,63,0.00,,---,0.00,VWS V14.01,2013-05-11 09:51:00,
2013-05-11 05:56:00,62.4,49.7,29.97,NE,52,0.0,0.0,63,0.00,,---,0.00,VWS V14.01,2013-05-11 09:56:00,
2013-05-11 06:01:00,62.6,49.8,29.97,NE,52,0.0,0.0,63,0.00,,---,0.00,VWS V14.01,2013-05-11 10:01:00,
2013-05-11 06:06:00,62.8,50.0,29.97,NE,52,0.0,0.0,63,0.00,,---,0.00,VWS V14.01,2013-05-11 10:06:00,
2013-05-11 06:11:00,63.0,50.2,29.97,NE,52,0.0,0.0,63,0.00,,---,0.00,VWS V14.01,2013-05-11 10:11:00,
2013-05-11 06:16:00,63.0,50.2,29.97,NE,52,0.0,0.0,63,0.00,,---,0.00,VWS V14.01,2013-05-11 10:16:00,
2013-05-11 06:21:00,63.1,50.3,29.97,NE,52,0.0,0.0,63,0.00,,---,0.00,VWS V14.01,2013-05-11 10:21:00,
2013-05-11 06:26:00,63.1,50.3,29.97,NE,52,0.0,0.0,63,0.00,,---,0.00,VWS V14.01,2013-05-11 10:26:00,
2013-05-11 06:31:00,63.3,51.0,29.97,NE,52,0.0,0.0,64,0.00,,---,0.00,VWS V14.01,2013-05-11 10:31:00,
2013-05-11 06:36:00,63.5,51.1,29.97,NE,52,0.0,0.0,64,0.00,,---,0.00,VWS V14.01,2013-05-11 10:36:00,
2013-05-11 06:41:00,63.7,51.3,29.97,NE,52,0.0,0.0,64,0.00,,---,0.00,VWS V14.01,2013-05-11 10:41:00,
2013-05-11 06:46:00,63.9,51.5,29.97,NE,52,0.0,0.0,64,0.00,,---,0.00,VWS V14.01,2013-05-11 10:46:00,
2013-05-11 06:51:00,64.0,52.0,29.97,NE,52,0.0,0.0,65,0.00,,---,0.00,VWS V14.01,2013-05-11 10:51:00,
2013-05-11 06:56:00,64.2,52.2,29.97,NE,52,0.0,0.0,65,0.00,,---,0.00,VWS V14.01,2013-05-11 10:56:00,
2013-05-11 07:01:00,64.2,52.2,30.00,NE,52,0.0,0.0,65,0.00,,---,0.00,VWS V14.01,2013-05-11 11:01:00,
2013-05-11 07:06:00,64.4,52.0,30.00,NE,52,0.0,0.0,64,0.00,,---,0.00,VWS V14.01,2013-05-11 11:06:00,
2013-05-11 07:11:00,64.6,52.6,30.00,NE,52,0.0,0.0,65,0.00,,---,0.00,VWS V14.01,2013-05-11 11:11:00,
2013-05-11 07:16:00,64.6,52.6,30.00,NE,52,0.0,0.0,65,0.00,,---,0.00,VWS V14.01,2013-05-11 11:16:00,
2013-05-11 07:21:00,64.8,52.7,30.00,NE,52,0.0,0.0,65,0.00,,---,0.00,VWS V14.01,2013-05-11 11:21:00,
2013-05-11 07:26:00,64.9,52.9,30.00,NE,52,0.0,0.0,65,0.00,,---,0.00,VWS V14.01,2013-05-11 11:26:00,
2013-05-11 07:31:00,65.1,53.1,30.00,NE,52,0.0,0.0,65,0.00,,---,0.00,VWS V14.01,2013-05-11 11:31:00,
2013-05-11 07:36:00,65.1,53.5,30.00,NE,52,0.0,0.0,66,0.00,,---,0.00,VWS V14.01,2013-05-11 11:36:00,
2013-05-11 07:41:00,65.5,54.7,30.00,NE,52,0.0,0.0,68,0.00,,---,0.00,VWS V14.01,2013-05-11 11:41:00,
2013-05-11 07:46:00,65.7,54.4,29.97,NE,52,0.0,0.0,67,0.00,,---,0.00,VWS V14.01,2013-05-11 11:46:00,
2013-05-11 07:51:00,65.8,54.6,29.97,NE,52,0.0,0.0,67,0.00,,---,0.00,VWS V14.01,2013-05-11 11:51:00,
2013-05-11 07:56:00,66.0,54.8,29.97,NE,52,0.0,0.0,67,0.00,,---,0.00,VWS V14.01,2013-05-11 11:56:00,
2013-05-11 08:01:00,66.2,54.9,30.00,NE,52,0.0,0.0,67,0.00,,---,0.00,VWS V14.01,2013-05-11 12:01:00,
2013-05-11 08:06:00,66.2,54.9,30.00,NE,52,0.0,0.0,67,0.00,,---,0.00,VWS V14.01,2013-05-11 12:06:00,
2013-05-11 08:11:00,66.6,55.3,30.00,NE,52,0.0,0.0,67,0.00,,---,0.00,VWS V14.01,2013-05-11 12:11:00,
2013-05-11 08:16:00,66.9,55.6,30.00,NE,52,0.0,0.0,67,0.00,,---,0.00,VWS V14.01,2013-05-11 12:16:00,
2013-05-11 08:21:00,67.5,57.0,30.00,NE,52,0.0,0.0,69,0.00,,---,0.00,VWS V14.01,2013-05-11 12:21:00,
2013-05-11 08:26:00,68.4,57.8,30.00,NE,52,0.0,0.0,69,0.00,,---,0.00,VWS V14.01,2013-05-11 12:26:00,
2013-05-11 08:31:00,69.3,59.1,30.00,South,187,0.0,0.0,70,0.00,,---,0.00,VWS V14.01,2013-05-11 12:31:00,
2013-05-11 08:36:00,70.2,59.5,30.00,SW,234,2.2,2.7,69,0.00,,---,0.00,VWS V14.01,2013-05-11 12:36:00,
2013-05-11 08:41:00,71.1,60.0,30.00,WSW,243,0.0,3.1,68,0.00,,---,0.00,VWS V14.01,2013-05-11 12:41:00,
2013-05-11 08:46:00,71.6,59.7,30.00,SW,231,2.2,2.2,66,0.00,,---,0.00,VWS V14.01,2013-05-11 12:46:00,
2013-05-11 08:51:00,72.1,59.7,30.00,SW,227,2.7,2.7,65,0.00,,---,0.00,VWS V14.01,2013-05-11 12:51:00,
2013-05-11 08:56:00,72.7,60.2,30.00,SW,232,0.0,0.0,65,0.00,,---,0.00,VWS V14.01,2013-05-11 12:56:00,
2013-05-11 09:01:00,73.2,60.3,30.00,WSW,252,2.7,2.7,64,0.00,,---,0.00,VWS V14.01,2013-05-11 13:01:00,
2013-05-11 09:06:00,73.8,60.4,30.00,SW,222,0.0,0.0,63,0.00,,---,0.00,VWS V14.01,2013-05-11 13:06:00,
2013-05-11 09:11:00,74.5,60.6,30.00,SSW,212,2.2,2.2,62,0.00,,---,0.00,VWS V14.01,2013-05-11 13:11:00,
2013-05-11 09:16:00,75.0,60.7,30.00,WNW,299,3.1,3.6,61,0.00,,---,0.00,VWS V14.01,2013-05-11 13:16:00,
2013-05-11 09:21:00,75.4,60.1,30.00,SSW,204,2.7,3.6,59,0.00,,---,0.00,VWS V14.01,2013-05-11 13:21:00,
2013-05-11 09:26:00,75.7,59.4,30.00,WSW,256,2.7,3.6,57,0.00,,---,0.00,VWS V14.01,2013-05-11 13:26:00,
2013-05-11 09:31:00,76.1,59.8,30.00,SSW,199,2.7,4.0,57,0.00,,---,0.00,VWS V14.01,2013-05-11 13:31:00,
2013-05-11 09:36:00,76.5,60.6,30.00,SSW,211,4.0,4.0,58,0.00,,---,0.00,VWS V14.01,2013-05-11 13:36:00,
2013-05-11 09:41:00,76.8,60.5,30.00,SSW,208,2.7,3.1,57,0.00,,---,0.00,VWS V14.01,2013-05-11 13:41:00,
2013-05-11 09:46:00,77.2,59.8,30.00,SW,228,2.7,3.1,55,0.00,,---,0.00,VWS V14.01,2013-05-11 13:46:00,
2013-05-11 09:51:00,77.4,59.4,30.00,West,261,2.2,4.9,54,0.00,,---,0.00,VWS V14.01,2013-05-11 13:51:00,
2013-05-11 09:56:00,77.4,59.4,30.00,SW,219,2.2,2.7,54,0.00,,---,0.00,VWS V14.01,2013-05-11 13:56:00,
2013-05-11 10:01:00,77.7,59.8,30.00,SSW,209,4.0,5.8,54,0.00,,---,0.00,VWS V14.01,2013-05-11 14:01:00,
2013-05-11 10:06:00,78.1,60.1,30.00,SSW,197,3.1,3.1,54,0.00,,---,0.00,VWS V14.01,2013-05-11 14:06:00,
2013-05-11 10:11:00,77.9,58.9,30.00,South,183,3.6,3.6,52,0.00,,---,0.00,VWS V14.01,2013-05-11 14:11:00,
2013-05-11 10:16:00,77.9,59.4,30.00,SSW,200,3.6,3.6,53,0.00,,---,0.00,VWS V14.01,2013-05-11 14:16:00,
2013-05-11 10:21:00,78.3,59.7,30.00,SSW,213,3.1,3.6,53,0.00,,---,0.00,VWS V14.01,2013-05-11 14:21:00,
2013-05-11 10:26:00,78.4,59.4,30.00,SSW,203,2.7,6.3,52,0.00,,---,0.00,VWS V14.01,2013-05-11 14:26:00,
2013-05-11 10:31:00,78.8,59.2,30.00,SSW,199,3.1,5.4,51,0.00,,---,0.00,VWS V14.01,2013-05-11 14:31:00,
2013-05-11 10:36:00,79.0,59.3,30.00,SW,224,3.1,3.1,51,0.00,,---,0.00,VWS V14.01,2013-05-11 14:36:00,
2013-05-11 10:41:00,79.0,58.8,30.00,WNW,294,4.0,4.0,50,0.00,,---,0.00,VWS V14.01,2013-05-11 14:41:00,
2013-05-11 10:46:00,79.5,59.8,30.00,South,179,3.1,3.1,51,0.00,,---,0.00,VWS V14.01,2013-05-11 14:46:00,
2013-05-11 10:51:00,79.9,59.6,30.00,SSW,207,3.1,4.0,50,0.00,,---,0.00,VWS V14.01,2013-05-11 14:51:00,
2013-05-11 10:56:00,79.7,59.4,30.00,SW,218,2.7,3.6,50,0.00,,---,0.00,VWS V14.01,2013-05-11 14:56:00,
2013-05-11 11:01:00,79.9,58.5,30.00,WSW,252,4.9,4.9,48,0.00,,---,0.00,VWS V14.01,2013-05-11 15:01:00,
2013-05-11 11:06:00,80.1,58.6,30.00,WSW,243,2.2,3.1,48,0.00,,---,0.00,VWS V14.01,2013-05-11 15:06:00,
2013-05-11 11:11:00,80.4,59.5,30.00,WSW,247,2.7,3.1,49,0.00,,---,0.00,VWS V14.01,2013-05-11 15:11:00,
2013-05-11 11:16:00,80.6,58.5,30.00,SSW,202,3.6,3.6,47,0.00,,---,0.00,VWS V14.01,2013-05-11 15:16:00,
2013-05-11 11:21:00,80.6,57.3,30.00,SW,230,5.4,5.4,45,0.00,,---,0.00,VWS V14.01,2013-05-11 15:21:00,
2013-05-11 11:26:00,80.8,56.9,30.00,SSW,203,3.6,3.6,44,0.00,,---,0.00,VWS V14.01,2013-05-11 15:26:00,
2013-05-11 11:31:00,80.8,57.5,30.00,SW,228,4.0,4.0,45,0.00,,---,0.00,VWS V14.01,2013-05-11 15:31:00,
2013-05-11 11:36:00,81.5,57.5,30.00,South,188,3.1,4.0,44,0.00,,---,0.00,VWS V14.01,2013-05-11 15:36:00,
2013-05-11 11:41:00,81.7,57.0,30.00,SSW,208,3.1,4.0,43,0.00,,---,0.00,VWS V14.01,2013-05-11 15:41:00,
2013-05-11 11:46:00,81.5,56.9,30.00,SSW,209,3.1,3.1,43,0.00,,---,0.00,VWS V14.01,2013-05-11 15:46:00,
2013-05-11 11:51:00,81.3,56.7,30.00,SW,227,4.0,4.0,43,0.00,,---,0.00,VWS V14.01,2013-05-11 15:51:00,
2013-05-11 11:56:00,81.5,56.9,30.00,SSW,212,2.7,4.0,43,0.00,,---,0.00,VWS V14.01,2013-05-11 15:56:00,
2013-05-11 12:01:00,81.9,57.2,30.00,SSW,213,5.4,5.4,43,0.00,,---,0.00,VWS V14.01,2013-05-11 16:01:00,
2013-05-11 12:06:00,82.4,56.4,30.00,WSW,244,4.9,5.8,41,0.00,,---,0.00,VWS V14.01,2013-05-11 16:06:00,
2013-05-11 12:11:00,82.8,56.7,30.00,WSW,240,4.0,4.9,41,0.00,,---,0.00,VWS V14.01,2013-05-11 16:11:00,
2013-05-11 12:16:00,83.5,56.6,30.00,SW,214,4.0,4.0,40,0.00,,---,0.00,VWS V14.01,2013-05-11 16:16:00,
2013-05-11 12:21:00,83.8,57.0,30.00,SSW,202,0.0,5.4,40,0.00,,---,0.00,VWS V14.01,2013-05-11 16:21:00,
2013-05-11 12:26:00,84.4,56.7,30.00,WSW,246,4.0,5.4,39,0.00,,---,0.00,VWS V14.01,2013-05-11 16:26:00,
2013-05-11 12:31:00,84.4,56.7,30.00,West,266,3.6,4.0,39,0.00,,---,0.00,VWS V14.01,2013-05-11 16:31:00,
2013-05-11 12:36:00,84.2,56.6,30.00,WSW,244,3.1,3.6,39,0.00,,---,0.00,VWS V14.01,2013-05-11 16:36:00,
2013-05-11 12:41:00,84.4,56.7,30.00,WSW,247,4.5,4.5,39,0.00,,---,0.00,VWS V14.01,2013-05-11 16:41:00,
2013-05-11 12:46:00,84.7,57.1,29.97,WSW,240,5.8,5.8,39,0.00,,---,0.00,VWS V14.01,2013-05-11 16:46:00,
2013-05-11 12:51:00,85.1,57.4,29.97,WSW,251,3.6,5.4,39,0.00,,---,0.00,VWS V14.01,2013-05-11 16:51:00,
2013-05-11 12:56:00,84.9,57.2,29.97,West,281,4.0,6.3,39,0.00,,---,0.00,VWS V14.01,2013-05-11 16:56:00,
2013-05-11 13:01:00,85.5,57.7,29.97,WSW,243,7.2,7.2,39,0.00,,---,0.00,VWS V14.01,2013-05-11 17:01:00,
2013-05-11 13:06:00,86.0,57.5,29.97,WSW,247,4.0,4.0,38,0.00,,---,0.00,VWS V14.01,2013-05-11 17:06:00,
2013-05-11 13:11:00,86.5,57.9,29.97,SW,216,3.6,3.6,38,0.00,,---,0.00,VWS V14.01,2013-05-11 17:11:00,
2013-05-11 13:16:00,86.5,57.9,29.97,WSW,237,6.7,6.7,38,0.00,,---,0.00,VWS V14.01,2013-05-11 17:16:00,
2013-05-11 13:21:00,86.5,57.9,29.97,WSW,256,2.7,3.6,38,0.00,,---,0.00,VWS V14.01,2013-05-11 17:21:00,
2013-05-11 13:26:00,86.9,58.3,29.97,WSW,247,4.9,4.9,38,0.00,,---,0.00,VWS V14.01,2013-05-11 17:26:00,
2013-05-11 13:31:00,87.1,58.4,29.97,SSW,197,4.9,5.4,38,0.00,,---,0.00,VWS V14.01,2013-05-11 17:31:00,
2013-05-11 13:36:00,87.4,58.7,29.97,SW,214,2.7,4.0,38,0.00,,---,0.00,VWS V14.01,2013-05-11 17:36:00,
2013-05-11 13:41:00,87.1,58.4,29.97,SW,231,2.7,5.4,38,0.00,,---,0.00,VWS V14.01,2013-05-11 17:41:00,
2013-05-11 13:46:00,87.4,58.7,29.97,WSW,244,2.7,3.6,38,0.00,,---,0.00,VWS V14.01,2013-05-11 17:46:00,
2013-05-11 13:51:00,87.4,58.7,29.97,West,262,4.0,4.0,38,0.00,,---,0.00,VWS V14.01,2013-05-11 17:51:00,
2013-05-11 13:56:00,87.6,58.9,29.97,SW,230,3.1,4.9,38,0.00,,---,0.00,VWS V14.01,2013-05-11 17:56:00,
2013-05-11 14:01:00,88.0,56.9,29.97,SW,231,3.1,3.6,35,0.00,,---,0.00,VWS V14.01,2013-05-11 18:01:00,
2013-05-11 14:06:00,87.4,57.2,29.97,South,183,4.0,6.3,36,0.00,,---,0.00,VWS V14.01,2013-05-11 18:06:00,
2013-05-11 14:11:00,87.6,57.4,29.97,SW,233,5.4,5.4,36,0.00,,---,0.00,VWS V14.01,2013-05-11 18:11:00,
2013-05-11 14:16:00,88.0,56.9,29.97,West,259,3.6,4.9,35,0.00,,---,0.00,VWS V14.01,2013-05-11 18:16:00,
2013-05-11 14:21:00,88.5,57.4,29.97,SW,220,2.7,3.6,35,0.00,,---,0.00,VWS V14.01,2013-05-11 18:21:00,
2013-05-11 14:26:00,88.9,57.7,29.97,South,182,3.1,5.4,35,0.00,,---,0.00,VWS V14.01,2013-05-11 18:26:00,
2013-05-11 14:31:00,88.9,57.7,29.97,SW,220,3.6,4.0,35,0.00,,---,0.00,VWS V14.01,2013-05-11 18:31:00,
2013-05-11 14:36:00,88.9,57.7,29.97,SSW,209,4.9,4.9,35,0.00,,---,0.00,VWS V14.01,2013-05-11 18:36:00,
2013-05-11 14:41:00,88.9,57.7,29.97,SSW,198,3.1,4.0,35,0.00,,---,0.00,VWS V14.01,2013-05-11 18:41:00,
2013-05-11 14:46:00,88.7,57.6,29.97,WSW,246,5.8,5.8,35,0.00,,---,0.00,VWS V14.01,2013-05-11 18:46:00,
2013-05-11 14:51:00,88.0,56.9,29.97,South,179,5.4,5.4,35,0.00,,---,0.00,VWS V14.01,2013-05-11 18:51:00,
2013-05-11 14:56:00,87.3,57.1,29.97,West,274,2.7,2.7,36,0.00,,---,0.00,VWS V14.01,2013-05-11 18:56:00,
2013-05-11 15:01:00,86.9,56.8,29.97,WSW,251,5.8,5.8,36,0.00,,---,0.00,VWS V14.01,2013-05-11 19:01:00,
2013-05-11 15:06:00,86.7,56.6,29.97,WSW,250,5.8,5.8,36,0.00,,---,0.00,VWS V14.01,2013-05-11 19:06:00,
2013-05-11 15:11:00,87.1,56.9,29.97,SSW,198,8.7,8.7,36,0.00,,---,0.00,VWS V14.01,2013-05-11 19:11:00,
2013-05-11 15:16:00,87.4,57.2,29.97,WSW,253,7.6,10.1,36,0.00,,---,0.00,VWS V14.01,2013-05-11 19:16:00,
2013-05-11 15:21:00,87.6,57.4,29.97,WSW,242,3.6,4.9,36,0.00,,---,0.00,VWS V14.01,2013-05-11 19:21:00,
2013-05-11 15:26:00,87.1,56.9,29.97,SW,218,4.0,4.0,36,0.00,,---,0.00,VWS V14.01,2013-05-11 19:26:00,
2013-05-11 15:31:00,86.5,56.4,29.97,WSW,257,5.8,5.8,36,0.00,,---,0.00,VWS V14.01,2013-05-11 19:31:00,
2013-05-11 15:36:00,86.5,56.4,29.97,SW,233,3.1,4.0,36,0.00,,---,0.00,VWS V14.01,2013-05-11 19:36:00,
2013-05-11 15:41:00,86.9,56.8,29.97,WSW,237,5.4,6.3,36,0.00,,---,0.00,VWS V14.01,2013-05-11 19:41:00,
2013-05-11 15:46:00,86.9,56.8,29.97,WSW,241,8.3,8.3,36,0.00,,---,0.00,VWS V14.01,2013-05-11 19:46:00,
2013-05-11 15:51:00,86.4,56.3,29.97,NW,318,4.0,5.4,36,0.00,,---,0.00,VWS V14.01,2013-05-11 19:51:00,
2013-05-11 15:56:00,85.8,55.8,29.97,SW,216,4.0,5.8,36,0.00,,---,0.00,VWS V14.01,2013-05-11 19:56:00,
2013-05-11 16:01:00,86.7,56.6,29.97,SW,221,5.4,7.6,36,0.00,,---,0.00,VWS V14.01,2013-05-11 20:01:00,
2013-05-11 16:06:00,87.1,56.9,29.97,WSW,240,4.0,5.8,36,0.00,,---,0.00,VWS V14.01,2013-05-11 20:06:00,
2013-05-11 16:11:00,87.1,56.9,29.97,WSW,257,3.6,6.3,36,0.00,,---,0.00,VWS V14.01,2013-05-11 20:11:00,
2013-05-11 16:16:00,86.7,56.6,29.97,SW,223,3.1,3.6,36,0.00,,---,0.00,VWS V14.01,2013-05-11 20:16:00,
2013-05-11 16:21:00,86.0,56.0,29.97,SSW,194,5.4,5.8,36,0.00,,---,0.00,VWS V14.01,2013-05-11 20:21:00,
2013-05-11 16:26:00,85.1,55.2,29.97,SW,222,4.9,5.4,36,0.00,,---,0.00,VWS V14.01,2013-05-11 20:26:00,
2013-05-11 16:31:00,84.6,54.7,29.97,WSW,243,3.1,8.7,36,0.00,,---,0.00,VWS V14.01,2013-05-11 20:31:00,
2013-05-11 16:36:00,84.4,54.5,29.97,SW,224,5.4,5.8,36,0.00,,---,0.00,VWS V14.01,2013-05-11 20:36:00,
2013-05-11 16:41:00,84.4,56.0,29.97,WNW,283,4.0,4.0,38,0.00,,---,0.00,VWS V14.01,2013-05-11 20:41:00,
2013-05-11 16:46:00,84.2,55.9,29.97,WSW,251,5.4,5.8,38,0.00,,---,0.00,VWS V14.01,2013-05-11 20:46:00,
2013-05-11 16:51:00,84.0,56.4,29.97,NNW,331,5.8,5.8,39,0.00,,---,0.00,VWS V14.01,2013-05-11 20:51:00,
2013-05-11 16:56:00,83.7,56.1,29.97,West,267,6.3,6.3,39,0.00,,---,0.00,VWS V14.01,2013-05-11 20:56:00,
2013-05-11 17:01:00,83.3,55.8,29.97,WSW,252,3.1,5.8,39,0.00,,---,0.00,VWS V14.01,2013-05-11 21:01:00,
2013-05-11 17:06:00,83.1,55.6,29.97,West,266,8.7,8.7,39,0.00,,---,0.00,VWS V14.01,2013-05-11 21:06:00,
2013-05-11 17:11:00,82.9,55.5,29.97,South,190,3.1,4.0,39,0.00,,---,0.00,VWS V14.01,2013-05-11 21:11:00,
2013-05-11 17:16:00,82.8,55.3,30.00,South,190,5.4,5.4,39,0.00,,---,0.00,VWS V14.01,2013-05-11 21:16:00,
2013-05-11 17:21:00,82.6,55.1,30.00,WSW,238,10.1,10.1,39,0.00,,---,0.00,VWS V14.01,2013-05-11 21:21:00,
2013-05-11 17:26:00,82.6,55.1,30.00,SW,233,4.0,8.1,39,0.00,,---,0.00,VWS V14.01,2013-05-11 21:26:00,
2013-05-11 17:31:00,82.6,55.1,30.00,West,268,5.4,5.4,39,0.00,,---,0.00,VWS V14.01,2013-05-11 21:31:00,
2013-05-11 17:36:00,82.4,55.0,30.00,WSW,243,6.3,6.3,39,0.00,,---,0.00,VWS V14.01,2013-05-11 21:36:00,
2013-05-11 17:41:00,81.7,55.0,30.00,WSW,252,10.5,10.5,40,0.00,,---,0.00,VWS V14.01,2013-05-11 21:41:00,
2013-05-11 17:46:00,81.5,54.9,30.00,West,267,5.4,5.8,40,0.00,,---,0.00,VWS V14.01,2013-05-11 21:46:00,
2013-05-11 17:51:00,81.3,54.7,30.00,WSW,237,3.1,4.0,40,0.00,,---,0.00,VWS V14.01,2013-05-11 21:51:00,
2013-05-11 17:56:00,81.1,54.5,30.00,WNW,294,5.4,5.4,40,0.00,,---,0.00,VWS V14.01,2013-05-11 21:56:00,
2013-05-11 18:01:00,81.0,54.4,30.00,SW,235,3.6,6.3,40,0.00,,---,0.00,VWS V14.01,2013-05-11 22:01:00,
2013-05-11 18:06:00,80.8,54.2,30.00,SSW,208,2.7,3.1,40,0.00,,---,0.00,VWS V14.01,2013-05-11 22:06:00,
2013-05-11 18:11:00,80.6,54.8,30.00,SW,214,4.0,4.0,41,0.00,,---,0.00,VWS V14.01,2013-05-11 22:11:00,
2013-05-11 18:16:00,80.4,54.6,30.00,SSW,210,3.1,3.1,41,0.00,,---,0.00,VWS V14.01,2013-05-11 22:16:00,
2013-05-11 18:21:00,80.2,55.1,30.00,WSW,243,4.0,4.9,42,0.00,,---,0.00,VWS V14.01,2013-05-11 22:21:00,
2013-05-11 18:26:00,80.1,55.6,30.00,West,263,6.3,13.2,43,0.00,,---,0.00,VWS V14.01,2013-05-11 22:26:00,
2013-05-11 18:31:00,79.7,55.2,30.00,SW,233,3.1,5.8,43,0.00,,---,0.00,VWS V14.01,2013-05-11 22:31:00,
2013-05-11 18:36:00,79.3,54.9,30.00,WSW,258,4.9,8.1,43,0.00,,---,0.00,VWS V14.01,2013-05-11 22:36:00,
2013-05-11 18:41:00,79.2,56.0,30.00,SSW,194,6.7,6.7,45,0.00,,---,0.00,VWS V14.01,2013-05-11 22:41:00,
2013-05-11 18:46:00,78.6,54.9,30.00,WSW,256,3.1,6.3,44,0.00,,---,0.00,VWS V14.01,2013-05-11 22:46:00,
2013-05-11 18:51:00,77.7,54.7,30.00,WSW,238,5.4,5.8,45,0.00,,---,0.00,VWS V14.01,2013-05-11 22:51:00,
2013-05-11 18:56:00,76.8,56.8,30.00,West,262,4.0,4.9,50,0.00,,---,0.00,VWS V14.01,2013-05-11 22:56:00,
2013-05-11 19:01:00,75.7,57.4,30.03,WSW,250,4.0,4.9,53,0.00,,---,0.00,VWS V14.01,2013-05-11 23:01:00,
2013-05-11 19:06:00,74.8,58.6,30.03,West,268,3.6,3.6,57,0.00,,---,0.00,VWS V14.01,2013-05-11 23:06:00,
2013-05-11 19:11:00,74.3,60.5,30.03,West,271,4.0,4.0,62,0.00,,---,0.00,VWS V14.01,2013-05-11 23:11:00,
2013-05-11 19:16:00,73.9,60.6,30.03,WSW,241,3.1,3.1,63,0.00,,---,0.00,VWS V14.01,2013-05-11 23:16:00,
2013-05-11 19:21:00,73.4,60.0,30.03,WSW,251,0.0,2.7,63,0.00,,---,0.00,VWS V14.01,2013-05-11 23:21:00,
2013-05-11 19:26:00,73.2,61.2,30.03,WSW,238,2.7,3.1,66,0.00,,---,0.00,VWS V14.01,2013-05-11 23:26:00,
2013-05-11 19:31:00,73.0,63.1,30.03,WSW,244,3.1,3.6,71,0.00,,---,0.00,VWS V14.01,2013-05-11 23:31:00,
2013-05-11 19:36:00,72.3,62.0,30.03,West,262,4.0,4.0,70,0.04,,---,0.04,VWS V14.01,2013-05-11 23:36:00,
2013-05-11 19:41:00,71.8,60.2,30.03,SW,235,0.0,0.0,67,0.04,,---,0.04,VWS V14.01,2013-05-11 23:41:00,
2013-05-11 19:46:00,71.4,59.9,30.03,WSW,243,0.0,0.0,67,0.04,,---,0.04,VWS V14.01,2013-05-11 23:46:00,
2013-05-11 19:51:00,71.1,58.7,30.03,West,259,0.0,0.0,65,0.04,,---,0.04,VWS V14.01,2013-05-11 23:51:00,
2013-05-11 19:56:00,70.9,58.1,30.03,West,259,0.0,0.0,64,0.04,,---,0.04,VWS V14.01,2013-05-11 23:56:00,
2013-05-11 20:01:00,70.7,57.5,30.00,WSW,258,0.0,0.0,63,0.08,,---,0.08,VWS V14.01,2013-05-12 00:01:00,
2013-05-11 20:06:00,70.7,57.5,30.00,West,259,0.0,0.0,63,0.08,,---,0.08,VWS V14.01,2013-05-12 00:06:00,
2013-05-11 20:11:00,70.5,57.3,30.00,West,259,0.0,0.0,63,0.08,,---,0.08,VWS V14.01,2013-05-12 00:11:00,
2013-05-11 20:16:00,70.3,57.2,29.97,West,259,0.0,0.0,63,0.08,,---,0.08,VWS V14.01,2013-05-12 00:16:00,
2013-05-11 20:21:00,70.3,57.6,29.97,West,259,0.0,0.0,64,0.08,,---,0.08,VWS V14.01,2013-05-12 00:21:00,
2013-05-11 20:26:00,70.2,57.4,29.97,West,259,0.0,0.0,64,0.08,,---,0.08,VWS V14.01,2013-05-12 00:26:00,
2013-05-11 20:31:00,70.2,57.4,29.94,West,259,0.0,0.0,64,0.08,,---,0.08,VWS V14.01,2013-05-12 00:31:00,
2013-05-11 20:36:00,70.2,57.4,29.94,West,259,0.0,0.0,64,0.04,,---,0.08,VWS V14.01,2013-05-12 00:36:00,
2013-05-11 20:41:00,70.0,57.3,29.94,West,259,0.0,0.0,64,0.04,,---,0.08,VWS V14.01,2013-05-12 00:41:00,
2013-05-11 20:46:00,70.0,57.3,29.94,SW,219,0.0,0.0,64,0.04,,---,0.08,VWS V14.01,2013-05-12 00:46:00,
2013-05-11 20:51:00,69.8,57.1,29.94,SW,219,0.0,0.0,64,0.04,,---,0.08,VWS V14.01,2013-05-12 00:51:00,
2013-05-11 20:56:00,69.8,58.4,29.94,WSW,239,0.0,0.0,67,0.04,,---,0.08,VWS V14.01,2013-05-12 00:56:00,
2013-05-11 21:01:00,69.8,58.8,29.94,SSW,200,0.0,0.0,68,0.00,,---,0.08,VWS V14.01,2013-05-12 01:01:00,
2013-05-11 21:06:00,69.6,59.0,29.94,SE,144,2.2,2.2,69,0.00,,---,0.08,VWS V14.01,2013-05-12 01:06:00,
2013-05-11 21:11:00,69.4,58.8,29.94,SSE,149,0.0,0.0,69,0.00,,---,0.08,VWS V14.01,2013-05-12 01:11:00,
2013-05-11 21:16:00,69.4,58.8,29.97,SE,145,0.0,0.0,69,0.00,,---,0.08,VWS V14.01,2013-05-12 01:16:00,
2013-05-11 21:21:00,69.4,59.6,29.97,SW,231,2.7,2.7,71,0.00,,---,0.08,VWS V14.01,2013-05-12 01:21:00,
2013-05-11 21:26:00,69.4,59.2,29.97,SW,228,2.7,3.6,70,0.00,,---,0.08,VWS V14.01,2013-05-12 01:26:00,
2013-05-11 21:31:00,69.3,59.1,29.97,SW,215,0.0,2.2,70,0.00,,---,0.08,VWS V14.01,2013-05-12 01:31:00,
2013-05-11 21:36:00,69.3,59.1,29.97,SSW,202,0.0,0.0,70,0.00,,---,0.08,VWS V14.01,2013-05-12 01:36:00,
2013-05-11 21:41:00,69.3,59.1,29.97,South,181,0.0,0.0,70,0.00,,---,0.08,VWS V14.01,2013-05-12 01:41:00,
2013-05-11 21:46:00,69.1,59.3,29.97,South,190,0.0,0.0,71,0.00,,---,0.08,VWS V14.01,2013-05-12 01:46:00,
2013-05-11 21:51:00,69.1,59.3,29.97,South,190,0.0,0.0,71,0.00,,---,0.08,VWS V14.01,2013-05-12 01:51:00,
2013-05-11 21:56:00,69.1,60.1,29.97,South,190,0.0,0.0,73,0.00,,---,0.08,VWS V14.01,2013-05-12 01:56:00,
2013-05-11 22:01:00,68.9,59.5,29.97,South,190,0.0,0.0,72,0.00,,---,0.08,VWS V14.01,2013-05-12 02:01:00,
2013-05-11 22:06:00,68.9,59.1,29.97,South,190,0.0,0.0,71,0.00,,---,0.08,VWS V14.01,2013-05-12 02:06:00,
2013-05-11 22:11:00,68.7,59.3,29.97,South,190,0.0,0.0,72,0.00,,---,0.08,VWS V14.01,2013-05-12 02:11:00,
2013-05-11 22:16:00,68.7,59.7,30.00,South,190,0.0,0.0,73,0.00,,---,0.08,VWS V14.01,2013-05-12 02:16:00,
2013-05-11 22:21:00,68.7,59.7,30.00,South,190,0.0,0.0,73,0.00,,---,0.08,VWS V14.01,2013-05-12 02:21:00,
2013-05-11 22:26:00,68.7,60.5,30.00,South,190,0.0,0.0,75,0.00,,---,0.08,VWS V14.01,2013-05-12 02:26:00,
2013-05-11 22:31:00,68.5,61.8,30.00,South,190,0.0,0.0,79,0.00,,---,0.08,VWS V14.01,2013-05-12 02:31:00,
2013-05-11 22:36:00,68.5,60.7,30.00,South,190,0.0,0.0,76,0.00,,---,0.08,VWS V14.01,2013-05-12 02:36:00,
2013-05-11 22:41:00,68.4,60.1,30.00,South,190,0.0,0.0,75,0.00,,---,0.08,VWS V14.01,2013-05-12 02:41:00,
2013-05-11 22:46:00,68.4,59.8,30.00,South,190,0.0,0.0,74,0.00,,---,0.08,VWS V14.01,2013-05-12 02:46:00,
2013-05-11 22:51:00,68.2,59.2,30.00,South,190,0.0,0.0,73,0.00,,---,0.08,VWS V14.01,2013-05-12 02:51:00,
2013-05-11 22:56:00,68.0,59.0,30.00,South,190,0.0,0.0,73,0.00,,---,0.08,VWS V14.01,2013-05-12 02:56:00,
2013-05-11 23:01:00,67.8,59.2,30.00,South,190,0.0,0.0,74,0.00,,---,0.08,VWS V14.01,2013-05-12 03:01:00,
2013-05-11 23:06:00,67.8,59.2,30.00,South,190,0.0,0.0,74,0.00,,---,0.08,VWS V14.01,2013-05-12 03:06:00,
2013-05-11 23:11:00,67.6,58.7,30.00,South,190,0.0,0.0,73,0.00,,---,0.08,VWS V14.01,2013-05-12 03:11:00,
2013-05-11 23:16:00,67.5,58.5,30.00,South,190,0.0,0.0,73,0.00,,---,0.08,VWS V14.01,2013-05-12 03:16:00,
2013-05-11 23:21:00,67.3,58.3,30.00,South,190,0.0,0.0,73,0.00,,---,0.08,VWS V14.01,2013-05-12 03:21:00,
2013-05-11 23:26:00,67.3,58.3,30.00,South,190,0.0,0.0,73,0.00,,---,0.08,VWS V14.01,2013-05-12 03:26:00,
2013-05-11 23:31:00,67.1,58.2,30.00,South,190,0.0,0.0,73,0.00,,---,0.08,VWS V14.01,2013-05-12 03:31:00,
2013-05-11 23:36:00,67.3,58.7,30.00,South,190,0.0,0.0,74,0.00,,---,0.08,VWS V14.01,2013-05-12 03:36:00,
2013-05-11 23:41:00,67.3,58.7,30.00,South,190,0.0,0.0,74,0.00,,---,0.08,VWS V14.01,2013-05-12 03:41:00,
2013-05-11 23:46:00,67.1,58.5,30.00,South,190,0.0,0.0,74,0.00,,---,0.08,VWS V14.01,2013-05-12 03:46:00,
2013-05-11 23:51:00,67.1,58.5,30.00,South,190,0.0,0.0,74,0.00,,---,0.08,VWS V14.01,2013-05-12 03:51:00,
2013-05-11 23:56:00,66.9,58.4,30.00,South,190,0.0,0.0,74,0.00,,---,0.08,VWS V14.01,2013-05-12 03:56:00,